軌道要素
Epoch 2012 Dec. 19.0 TT = JDT 2456280.5
T 2012 Dec. 2.64967 TT MPC
q 1.8599556 (2000.0) P Q
z -0.0014459 Peri. 91.99971 -0.11996169 -0.86129550
+/-0.0000235 Node 30.12221 -0.26520970 -0.45145532
e 1.0026893 Incl. 79.68804 +0.95669902 -0.23314834
From 245 observations 2013 Mar. 23-June 3, mean residual 0".5.
|